Horseshoe Bay, TX

10:14 AM MDT on July 27, 2017 (GMT -0600)
Horseshoe Bay

Weather History for KDZB - October, 2012

Change the Weather History Date:

Monday, October 29, 2012

  Actual Average (KBMQ) Record (KBMQ)
Temperature  
Mean Temperature 52 °F -  
Max Temperature 69 °F 71 °F 86 °F (2004)
Min Temperature 35 °F 53 °F 36 °F (2011)
Degree Days  
Heating Degree Days 13    
Growing Degree Days 2 (Base 50)    
Moisture  
Dew Point 33 °F    
Average Humidity 54    
Maximum Humidity 87    
Minimum Humidity 25    
Precipitation  
Precipitation 0.00 in - - ()
Sea Level Pressure  
Sea Level Pressure 30.20 in    
Wind  
Wind Speed - (North)    
Max Wind Speed -    
Max Gust Speed -    
Visibility 10 miles    
Events      
Averages and records for this station are not official NWS values.
T = Trace of Precipitation, MM = Missing Value Source: NWS Daily Summary

Daily Weather History Graph

Daily Weather History Graph

Search for Another Location

Airport or City:

Trip Planner

Search our weather history database for the weather conditions in past years. The results will help you decide how hot, cold, wet, or windy it might be!

Date:

Astronomy

Oct. 29, 2012 Rise Set
Actual Time 6:46 AM MDT 5:47 PM MDT
Civil Twilight 6:21 AM MDT 6:12 PM MDT
Nautical Twilight 5:53 AM MDT 6:40 PM MDT
Astronomical Twilight 5:24 AM MDT 7:08 PM MDT
Moon 5:43 PM MDT (10/29) 6:35 AM MDT (10/29)
Length of Visible Light 11h 51m
Length of Day
11h 01m
Full, 100% of the Moon is Illuminated
Oct 29
Full
Oct 29
Full
Nov 6
Last Quarter
Nov 13
New
Nov 20
First Quarter

Hourly Weather History & Observations

Time (MDT) Temp. Dew Point Humidity Pressure Visibility Wind Dir Wind Speed Gust Speed Precip Events Conditions
12:15 AM 41.0 °F 33.8 °F 76% 30.23 in 10.0 mi North - - N/A   Clear
12:35 AM 41.0 °F 33.8 °F 76% 30.23 in 10.0 mi North - - N/A   Clear
12:55 AM 41.0 °F 33.8 °F 76% 30.23 in 10.0 mi North - - N/A   Clear
1:15 AM 39.2 °F 33.8 °F 81% 30.23 in 10.0 mi North - - N/A   Clear
1:35 AM 37.4 °F 32.0 °F 81% 30.23 in 10.0 mi North - - N/A   Clear
1:55 AM 37.4 °F 32.0 °F 81% 30.24 in 10.0 mi North - - N/A   Clear
2:15 AM 37.4 °F 32.0 °F 81% 30.24 in 10.0 mi North - - N/A   Clear
2:35 AM 37.4 °F 32.0 °F 81% 30.24 in 10.0 mi North - - N/A   Clear
2:55 AM 37.4 °F 32.0 °F 81% 30.24 in 10.0 mi North - - N/A   Clear
3:15 AM 37.4 °F 32.0 °F 81% 30.23 in 10.0 mi North - - N/A   Clear
3:35 AM 37.4 °F 32.0 °F 81% 30.24 in 10.0 mi North - - N/A   Clear
3:55 AM 35.6 °F 32.0 °F 87% 30.23 in 10.0 mi North - - N/A   Clear
4:15 AM 35.6 °F 32.0 °F 87% 30.23 in 10.0 mi North - - N/A   Clear
4:55 AM 35.6 °F 32.0 °F 87% 30.25 in 10.0 mi North - - N/A   Clear
5:15 AM 35.6 °F 32.0 °F 87% 30.25 in 10.0 mi North - - N/A   Clear
5:35 AM 35.6 °F 32.0 °F 87% 30.25 in 10.0 mi North - - N/A   Clear
5:55 AM 35.6 °F 32.0 °F 87% 30.25 in 10.0 mi North - - N/A   Clear
6:15 AM 35.6 °F 32.0 °F 87% 30.25 in 10.0 mi North - - N/A   Clear
6:35 AM 35.6 °F 32.0 °F 87% 30.25 in 10.0 mi North - - N/A   Clear
6:55 AM 35.6 °F 32.0 °F 87% 30.26 in 10.0 mi North - - N/A   Clear
7:15 AM 35.6 °F 32.0 °F 87% 30.27 in 10.0 mi North - - N/A   Clear
7:35 AM 39.2 °F 33.8 °F 81% 30.28 in 10.0 mi North - - N/A   Clear
7:55 AM 44.6 °F 32.0 °F 61% 30.30 in 10.0 mi North - - N/A   Clear
8:15 AM 46.4 °F 33.8 °F 62% 30.30 in 10.0 mi North - - N/A   Clear
8:35 AM 50.0 °F 33.8 °F 54% 30.30 in 10.0 mi North - - N/A   Clear
8:55 AM 53.6 °F 32.0 °F 44% 30.29 in 10.0 mi North - - N/A   Clear
9:15 AM 55.4 °F 33.8 °F 44% 30.29 in 10.0 mi North - - N/A   Clear
9:35 AM 55.4 °F 32.0 °F 41% 30.29 in 10.0 mi North - - N/A   Clear
9:55 AM 59.0 °F 32.0 °F 36% 30.29 in 10.0 mi North - - N/A   Clear
10:15 AM 59.0 °F 32.0 °F 36% 30.28 in 10.0 mi North - - N/A   Clear
10:35 AM 60.8 °F 32.0 °F 34% 30.28 in 10.0 mi North - - N/A   Clear
10:55 AM 60.8 °F 32.0 °F 34% 30.27 in 10.0 mi North - - N/A   Clear
11:35 AM 62.6 °F 32.0 °F 32% 30.25 in 10.0 mi North - - N/A   Clear
12:15 PM 64.4 °F 32.0 °F 30% 30.23 in 10.0 mi North - - N/A   Clear
12:35 PM 64.4 °F 32.0 °F 30% 30.22 in 10.0 mi North - - N/A   Clear
12:55 PM 66.2 °F 32.0 °F 28% 30.20 in 10.0 mi North - - N/A   Clear
1:15 PM 66.2 °F 32.0 °F 28% 30.20 in 10.0 mi North - - N/A   Clear
1:35 PM 68.0 °F 32.0 °F 26% 30.19 in 10.0 mi North - - N/A   Clear
1:55 PM 68.0 °F 32.0 °F 26% 30.18 in 10.0 mi North - - N/A   Clear
2:15 PM 68.0 °F 32.0 °F 26% 30.16 in 10.0 mi North - - N/A   Clear
2:35 PM 68.0 °F 32.0 °F 26% 30.15 in 10.0 mi North - - N/A   Clear
2:55 PM 68.0 °F 32.0 °F 26% 30.15 in 10.0 mi North - - N/A   Clear
3:15 PM 69.8 °F 32.0 °F 25% 30.14 in 10.0 mi North - - N/A   Clear
3:35 PM 68.0 °F 32.0 °F 26% 30.14 in 10.0 mi North - - N/A   Clear
3:55 PM 69.8 °F 32.0 °F 25% 30.13 in 10.0 mi North - - N/A   Clear
4:15 PM 69.8 °F 32.0 °F 25% 30.13 in 10.0 mi North - - N/A   Clear
4:35 PM 68.0 °F 32.0 °F 26% 30.12 in 10.0 mi North - - N/A   Clear
4:55 PM 68.0 °F 32.0 °F 26% 30.12 in 10.0 mi North - - N/A   Clear
5:15 PM 66.2 °F 32.0 °F 28% 30.12 in 10.0 mi North - - N/A   Clear
5:35 PM 64.4 °F 33.8 °F 32% 30.12 in 10.0 mi North - - N/A   Clear
5:55 PM 60.8 °F 33.8 °F 36% 30.12 in 10.0 mi North - - N/A   Clear
6:15 PM 59.0 °F 33.8 °F 39% 30.12 in 10.0 mi North - - N/A   Clear
6:35 PM 57.2 °F 33.8 °F 41% 30.13 in 10.0 mi North - - N/A   Clear
6:55 PM 55.4 °F 33.8 °F 44% 30.13 in 10.0 mi North - - N/A   Clear
9:35 PM 51.8 °F 33.8 °F 50% 30.14 in 10.0 mi North - - N/A   Clear
9:55 PM 51.8 °F 33.8 °F 50% 30.13 in 10.0 mi North - - N/A   Clear
10:15 PM 53.6 °F 33.8 °F 47% 30.13 in 10.0 mi North - - N/A   Clear
10:35 PM 53.6 °F 33.8 °F 47% 30.12 in 10.0 mi North - - N/A   Clear
10:55 PM 53.6 °F 33.8 °F 47% 30.12 in 10.0 mi North - - N/A   Clear
11:15 PM 53.6 °F 33.8 °F 47% 30.12 in 10.0 mi North - - N/A   Clear
11:35 PM 53.6 °F 33.8 °F 47% 30.12 in 10.0 mi North - - N/A   Clear
11:55 PM 50.0 °F 35.6 °F 58% 30.12 in 10.0 mi North - - N/A   Clear